Regional Weather Roundup
Issued by NWS Northern Indiana

Home | Current Version | Previous Version | Graphics & Text | Print | Product List | Glossary On
Versions: 1 2 3 4 5 6 7 8 9 10 11 12 13 14 15 16 17 18 19 20 21 22 23 24 25 26 27 28 29 30 31 32 33 34 35 36 37 38 39 40 41 42 43 44 45 46 47 48 49 50
000
ASUS43 KIWX 302010
RWRIWX

KIWX WEATHER ROUNDUP
NATIONAL WEATHER SERVICE NORTHERN INDIANA
400 PM EDT TUE SEP 30 2014

NOTE: "FAIR" INDICATES FEW OR NO CLOUDS BELOW 12,000 FEET WITH NO
SIGNIFICANT WEATHER AND/OR OBSTRUCTIONS TO VISIBILITY.

* THESE STATIONS ARE NOT UNDER NWS QUALITY CONTROL. THEY ALSO MAY NOT
  REPORT WEATHER SUCH AS PRECIPITATION OR FOG.

INZ001>027-302100-
NORTHERN INDIANA

CITY           SKY/WX    TMP DP  RH WIND       PRES   REMARKS
GARY*          LGT RAIN  55  52  88 N12G23    30.03S
VALPARAISO     CLOUDY    58  46  64 N10       30.00F
MICHIGAN CITY* CLOUDY    54  43  66 N9        30.01F
LAPORTE*       CLOUDY    58  49  72 N10       30.01S
KNOX*          CLOUDY    58  47  66 N12       29.99S
SOUTH BEND     CLOUDY    61  45  55 N12       30.00F
ELKHART*       CLOUDY    55  45  67 N6        30.00F
MONTICELLO*    SUNNY     66  50  57 N9        29.96S
LOGANSPORT*    SUNNY     63  46  55 N12       29.97S
ROCHESTER*     SUNNY     63  48  59 N7        29.98S
WARSAW*        CLOUDY    57  46  67 NE8G16    29.99S
ANGOLA*        CLOUDY    55  46  71 N3        29.99S
FORT WAYNE     CLOUDY    55  48  77 NE9       29.99S
HUNTINGTON*    PTSUNNY   56  47  73 N9        29.99R
PERU/GRISSOM   SUNNY     64  52  63 N5        29.96F
MARION*        SUNNY     64  46  53 NE8       29.96F

$$
INZ028>050-302100-
CENTRAL INDIANA

CITY           SKY/WX    TMP DP  RH WIND       PRES   REMARKS
LAFAYETTE      SUNNY     68  50  52 N9        29.95F
KOKOMO*        SUNNY     66  48  52 N9        29.96S
MUNCIE*        SUNNY     65  50  58 NE7       29.96S
INDIANAPOLIS   PTSUNNY   70  53  54 N8        29.93F

$$
MIZ043>046-050>051-056>058-064>065-071>073-077>080-302100-
SOUTHWEST LOWER MICHIGAN

CITY           SKY/WX    TMP DP  RH WIND       PRES   REMARKS
BATTLE CREEK   CLOUDY    56  47  71 N7        30.01R
COLDWATER*     CLOUDY    56  49  78 N5        29.99S
HILLSDALE*     CLOUDY    56  49  79 CALM      29.99S
HOLLAND        CLOUDY    56  47  71 NW6       30.02S
GRAND RAPIDS   CLOUDY    58  49  72 N7        30.01S
KALAMAZOO      CLOUDY    55  47  74 NW7       30.01S
STURGIS*       CLOUDY    54  48  82 N5        29.99S
THREE RIVERS*  CLOUDY    55  48  77 NW7       30.01S

$$
OHZ001>008-015>018-024>025-302100-
NORTHWEST OHIO

CITY           SKY/WX    TMP DP  RH WIND       PRES   REMARKS
WAUSEON*       CLOUDY    57  50  77 N7        29.98S
DEFIANCE       CLOUDY    58  47  66 NE8       29.98S
FINDLAY        CLOUDY    60  49  66 N8        29.96S
TOLEDO EXPRESS CLOUDY    57  49  74 N3        29.97S
TOLEDO METCALF CLOUDY    59  48  67 NW6       29.98S
LIMA           CLOUDY    58  48  69 N7        29.97S

$$
AND FOR LAKE MICHIGAN COASTAL AND OPEN LAKE BUOY OBSERVATIONS

STATION/POSITION TEMP    WIND        PRES    VSBY  WAVE
                 AIR SEA DIR/SP/G                  HT/PER
                 (F)     (DEG/KT/KT) (MB)    (MI)  (FT/S)
CALUMET HARBOR    56     350/ 10/ 13 1015.5R
MICHIGAN CITY     55     360/ 14/ 20   N/A
SAINT JOSEPH      55      10/  6/ 10 1016.3F
SOUTH LAKE BUOY   54 62  360/ 16/ 19 1016.5F         4/ 7
4 MI NW BRIDGMAN  54 62   20/ 10/ 14   N/A           5/ 2
MICHIGAN CITY     56 65   10/ 12/ 17   N/A           5/ 2

$$
&&



USA.gov is the U.S. government's official web portal to all federal, state and local government web resources and services.